Weather History for KBKW - January, 2013

Change the Weather History Date:

Friday, January 4, 2013

  Actual Average Record
Temperature  
Mean Temperature 26 °F 31 °F  
Max Temperature 30 °F 39 °F 69 °F (1950)
Min Temperature 22 °F 23 °F -13 °F (1918)
Degree Days  
Heating Degree Days 39 34  
Month to date heating degree days 148 136  
Since 1 July heating degree days 2170 2229  
Cooling Degree Days 0 0  
Month to date cooling degree days 0 0  
Year to date cooling degree days 0 0  
Moisture  
Dew Point 17 °F    
Average Humidity 70    
Maximum Humidity 77    
Minimum Humidity 63    
Precipitation  
Precipitation 0.00 in 0.09 in 1.40 in (1917)
Month to date precipitation 0.14 0.37  
Year to date precipitation 0.14 0.37  
Snow  
Snow 0.00 in - - ()
Month to date snowfall 0.2  
Since 1 September snowfall 38.4  
Snow Depth 0.00 in    
Sea Level Pressure  
Sea Level Pressure 30.33 in    
Wind  
Wind Speed 9 mph (West)    
Max Wind Speed 18 mph    
Max Gust Speed 28 mph    
Visibility 10 miles    
Events      
T = Trace of Precipitation, MM = Missing Value Source: NWS Daily Summary

Daily Weather History Graph

Daily Weather History Graph

Search for Another Location

Airport or City:

Trip Planner

Search our weather history database for the weather conditions in past years. The results will help you decide how hot, cold, wet, or windy it might be!

Date:

Astronomy

Jan. 04, 2013 Rise Set
Actual Time 7:40 AM EST 5:19 PM EST
Civil Twilight 7:11 AM EST 5:48 PM EST
Nautical Twilight 6:38 AM EST 6:21 PM EST
Astronomical Twilight 6:06 AM EST 6:52 PM EST
Moon No Moon Rise 11:30 AM EST (1/4)
Length of Visible Light 10h 37m
Length of Day
9h 38m
Waning Gibbous, 55% of the Moon is Illuminated
Jan 4
Waning Gibbous
Jan 4
Last Quarter
Jan 11
New
Jan 18
First Quarter
Jan 26
Full

Hourly Weather History & Observations

Time (EST) Temp. Windchill Dew Point Humidity Pressure Visibility Wind Dir Wind Speed Gust Speed Precip Events Conditions
12:51 AM 24.1 °F 19.7 °F 16.0 °F 71% 30.32 in 10.0 mi West 3.5 mph - N/A   Scattered Clouds
1:51 AM 23.0 °F 17.0 °F 16.0 °F 74% 30.32 in 10.0 mi WNW 4.6 mph - N/A   Scattered Clouds
2:03 AM 23.0 °F 17.0 °F 15.8 °F 74% 30.22 in 10.0 mi WNW 4.6 mph - N/A   Mostly Cloudy
2:38 AM 23.0 °F 18.4 °F 15.8 °F 74% 30.23 in 10.0 mi West 3.5 mph - N/A   Scattered Clouds
2:51 AM 21.9 °F 15.7 °F 16.0 °F 78% 30.33 in 10.0 mi West 4.6 mph - N/A   Mostly Cloudy
4:51 AM 24.1 °F 15.2 °F 16.0 °F 71% 30.33 in 10.0 mi WNW 8.1 mph 16.1 mph N/A   Overcast
5:51 AM 24.1 °F 17.0 °F 16.0 °F 71% 30.32 in 10.0 mi West 5.8 mph - N/A   Overcast
6:51 AM 24.1 °F 13.1 °F 17.1 °F 75% 30.33 in 10.0 mi West 11.5 mph - N/A   Overcast
7:51 AM 24.1 °F 14.4 °F 17.1 °F 75% 30.35 in 10.0 mi WNW 9.2 mph 16.1 mph N/A   Overcast
8:51 AM 24.1 °F 16.0 °F 17.1 °F 75% 30.37 in 10.0 mi WNW 6.9 mph - N/A   Overcast
9:51 AM 24.1 °F 12.0 °F 17.1 °F 75% 30.39 in 10.0 mi West 13.8 mph - N/A   Overcast
10:51 AM 25.0 °F 13.1 °F 17.1 °F 72% 30.39 in 10.0 mi West 13.8 mph 20.7 mph N/A   Overcast
11:51 AM 25.0 °F 12.2 °F 18.0 °F 75% 30.35 in 10.0 mi West 16.1 mph - N/A   Overcast
12:51 PM 26.1 °F 15.0 °F 18.0 °F 71% 30.35 in 10.0 mi WSW 12.7 mph - N/A   Overcast
1:51 PM 27.0 °F 16.7 °F 18.0 °F 69% 30.33 in 10.0 mi WSW 11.5 mph 18.4 mph N/A   Overcast
2:51 PM 28.4 °F 17.0 °F 17.6 °F 64% 30.22 in 10.0 mi NW 15.0 mph 19.6 mph N/A   Mostly Cloudy
3:18 PM 28.4 °F 20.4 °F 17.6 °F 64% 30.21 in 10.0 mi WNW 8.1 mph - N/A   Scattered Clouds
3:51 PM 28.9 °F 18.2 °F 19.0 °F 67% 30.33 in 10.0 mi WNW 13.8 mph 19.6 mph N/A   Partly Cloudy
4:07 PM 28.4 °F 18.0 °F 19.4 °F 69% 30.23 in 10.0 mi WNW 12.7 mph - N/A   Mostly Cloudy
4:51 PM 28.9 °F 19.8 °F 19.0 °F 67% 30.32 in 10.0 mi West 10.4 mph - N/A   Overcast
5:51 PM 28.0 °F 19.3 °F 19.9 °F 72% 30.35 in 10.0 mi West 9.2 mph - N/A   Overcast
6:49 PM 28.4 °F 21.2 °F 19.4 °F 69% 30.26 in 10.0 mi West 6.9 mph - N/A   Overcast
6:51 PM 28.9 °F 21.1 °F 19.9 °F 69% 30.37 in 10.0 mi WNW 8.1 mph - N/A   Overcast
7:51 PM 28.0 °F 17.5 °F 18.0 °F 66% 30.38 in 10.0 mi West 12.7 mph - N/A   Partly Cloudy
8:51 PM 27.0 °F 19.5 °F 18.0 °F 69% 30.38 in 10.0 mi West 6.9 mph - N/A   Clear
9:51 PM 26.1 °F 19.4 °F 17.1 °F 69% 30.39 in 10.0 mi WNW 5.8 mph - N/A   Clear
10:51 PM 26.1 °F 20.5 °F 18.0 °F 71% 30.39 in 10.0 mi WNW 4.6 mph - N/A   Clear
11:51 PM 25.0 °F 18.1 °F 18.0 °F 75% 30.40 in 10.0 mi WNW 5.8 mph - N/A   Clear